This demonstration page uses our WeatherBlox Daily Observations layout. Learn more.

Left ArrowRight Arrow

39.29038, -76.61219

Hourly Observations for December 16, 2020

Temp ( °F °C ) Dew Point ( °F °C ) Humidity (%) Winds ( mph kmh ) Pressure ( in mb ) Visibility ( mi km ) Precip ( " mm )
12:54 am 00:54 Mostly Cloudy 31 -0.6 22 -5.6 69 69 NE 7 11 30.34 1027 10 16 0.00 0.00
1:54 am 01:54 Partly Cloudy 33 0.6 20 -6.7 58 58 E 10 17 30.33 1027 10 16 0.00 0.00
2:54 am 02:54 Partly Cloudy 32 0 19 -7.2 59 59 ENE 13 20 30.34 1027 10 16 0.00 0.00
3:54 am 03:54 Mostly Cloudy 30 -1.1 20 -6.7 66 66 NE 9 15 30.34 1027 10 16 0.00 0.00
4:54 am 04:54 Cloudy 30 -1.1 18 -7.8 61 61 NE 13 20 30.31 1026 10 16 0.00 0.00
5:54 am 05:54 Cloudy 30 -1.1 17 -8.3 58 58 NE 7 11 30.33 1027 10 16 0.00 0.00
6:54 am 06:54 Cloudy 30 -1.1 17 -8.3 58 58 NE 9 15 30.31 1026 10 16 0.00 0.00
7:54 am 07:54 Cloudy 31 -0.6 17 -8.3 56 56 NE 10 17 30.29 1026 10 16 0.00 0.00
8:54 am 08:54 Cloudy 31 -0.6 19 -7.2 61 61 NE 13 20 30.28 1026 10 16 0.00 0.00
9:54 am 09:54 Cloudy 32 0 19 -7.2 59 59 NE 10 17 30.26 1025 10 16 0.00 0.00
10:54 am 10:54 Cloudy with Light Snow 33 0.6 21 -6.1 61 61 NNE 10 17 30.24 1024 7 11 0.00 0.00
11:03 am 11:03 Cloudy with Light Snow 33 0.6 23 -5 66 66 NNE 8 13 30.23 1024 2 2 0.00 0.00
11:54 am 11:54 Cloudy with Light Snow 31 -0.6 26 -3.3 82 82 NNE 10 17 30.19 1022 1 1 0.02 0.51
12:20 pm 12:20 Cloudy with Snow 31 -0.6 27 -2.8 85 85 NE 12 19 30.17 1022 1 1 0.03 0.76
12:49 pm 12:49 Cloudy with Snow 30 -1 27 -3 86 86 NE 14 22 30.15 1021 1 1 0.05 1.27
12:54 pm 12:54 Cloudy with Snow 31 -0.6 28 -2.2 89 89 NE 14 22 30.14 1021 1 1 0.07 1.78
1:32 pm 13:32 Cloudy with Heavy Snow 31 -0.6 28 -2.2 89 89 NE 9 15 30.11 1020 0 0 0.07 1.78
1:54 pm 13:54 Cloudy with Heavy Snow 31 -0.6 28 -2.2 89 89 NE 14 22 30.09 1019 0 0 0.12 3.05
2:01 pm 14:01 Cloudy with Light Snow 31 -0.6 28 -2.2 89 89 NE 14 22 30.08 1019 1 1 0.01 0.25
2:08 pm 14:08 Cloudy with Light Snow 31 -0.6 28 -2.2 89 89 NE 12 19 30.08 1019 1 1 0.01 0.25
2:28 pm 14:28 Cloudy 32 0 29 -1.7 88 88 ENE 16 26 30.05 1018 2 3 0.05 1.27
2:43 pm 14:43 Cloudy with Light Rain 33 0.6 30 -1.1 89 89 NE 18 30 30.04 1017 3 4 0.08 2.03
2:54 pm 14:54 Cloudy with Light Rain 33 0.6 30 -1.1 89 89 ENE 15 24 30.02 1017 3 4 0.10 2.54
3:54 pm 15:54 Cloudy with Light Rain 34 1.1 30 -1.1 85 85 NE 17 28 29.96 1015 3 4 0.16 4.06
4:54 pm 16:54 Cloudy with Light Rain 34 1.1 31 -0.6 89 89 NE 17 28 29.94 1014 4 6 0.16 4.06
5:12 pm 17:12 Cloudy with Rain 34 1.1 31 -0.6 89 89 ENE 21 33 29.93 1014 3 4 0.06 1.52
5:54 pm 17:54 Cloudy with Rain 35 1.7 31 -0.6 85 85 ENE 21 33 29.87 1012 3 4 0.19 4.83
6:18 pm 18:18 Cloudy with Light Rain 35 1.7 31 -0.6 85 85 ENE 22 35 29.86 1011 3 5 0.03 0.76
6:54 pm 18:54 Cloudy with Light Rain 35 1.7 32 0 89 89 NE 18 30 29.84 1011 3 5 0.07 1.78
7:54 pm 19:54 Cloudy with Light Rain 35 1.7 32 0 89 89 ENE 22 35 29.78 1009 3 5 0.09 2.29
8:54 pm 20:54 Cloudy with Light Rain 35 1.7 33 0.6 93 93 NNE 10 17 29.77 1008 3 5 0.04 1.02
9:54 pm 21:54 Cloudy with Light Rain 35 1.7 33 0.6 93 93 N 9 15 29.74 1007 2 3 0.09 2.29
10:54 pm 22:54 Cloudy with Mist and Fog 34 1.1 31 -0.6 89 89 WNW 13 20 29.78 1009 3 5 0.22 5.59
10:56 pm 22:56 Cloudy with Mist and Fog 34 1.1 31 -0.6 89 89 WNW 12 19 29.79 1009 3 4 0.00 0.00
11:17 pm 23:17 Cloudy with Mist and Fog 32 0 29 -1.7 88 88 WNW 14 22 29.78 1008 2 2 0.07 1.78
11:27 pm 23:27 Cloudy with Mist and Fog 32 0 29 -1.7 88 88 NNW 13 20 29.76 1008 2 2 0.08 2.03
11:54 pm 23:54 Cloudy with Light Freezing Rain 31 -0.6 27 -2.8 85 85 N 18 30 29.67 1005 2 3 0.09 2.29

Powered by AerisWeather